Location: ??????
(38.0131°N, 23.7723°E)
Time: 18:29:06
(UTC+00:00)

METEOR 2-5 DEB - Pass Details

Date: 17 August 2022
Orbit: 809 x 849 km, 81.2° (Epoch: 29 September)

Event Time Altitude Azimuth Distance (km) Brightness Sun altitude
Rises 20:41:27 0° 328° (NNW) 3,344 ? -32.9°
Reaches altitude 10° 20:45:19 10° 300° (WNW) 2,401 ? -33.3°
Maximum altitude 20:47:30 13° 276° (W) 2,222 ? -33.5°
Enters shadow 20:49:22 11° 255° (WSW) 2,349 ? -33.7°
